[[{"header":{"parameterUnit":"m.s-1","parameterCategory":2,"la1":30.2991,"la2":30.254,"lo1":-89.0895,"lo2":-89.0444,"dy":0.0017,"dx":0.0017,"nx":28,"ny":28,"refTime":"2024-05-11T21:00:00:Z","depth":"0","parameterNumber":2,"parameterNumberName":"U-component_of_CURRENTS"},"data":[0,0,0,0,0,0,0,0,0,0,0,0,0,0,0,0,0,0,0,0,0,0,0,0,0,0,0,0,0,0,0,0,0,0,0,0,0,0,0,0,0,0,0,0,0,0,0,0,0,0,0,0,0,0,0,0,0,0,-0.2934,-0.2934,0,-0.2938,-0.2937,-0.2937,-0.2925,-0.2925,-0.2925,-0.2925,-0.2918,-0.2918,-0.2918,0,0,0,0,0,0,0,0,0,0,0,0,0,-0.2889,-0.289,-0.2934,-0.2934,-0.2935,-0.2938,-0.2937,-0.2937,-0.2925,-0.2925,-0.2925,-0.2925,-0.2918,-0.2918,-0.2918,0,0,0,0,0,0,0,0,0,0,0,0,0,-0.29,-0.289,-0.2934,-0.2931,-0.2931,-0.2938,-0.2937,-0.2937,-0.2925,-0.2925,-0.2925,-0.2925,-0.2918,-0.2918,-0.2918,-0.2921,0,0,-0.2918,-0.2918,0,0,0,0,0,0,0,0,-0.2899,-0.2901,-0.2931,-0.2931,-0.2931,-0.2933,-0.2919,-0.2932,-0.2925,-0.2924,-0.2925,-0.2925,-0.2924,-0.2924,-0.2921,-0.292,-0.292,-0.2918,-0.2918,-0.2918,-0.2918,0,0,0,0,0,0,0,-0.2898,-0.2901,-0.2932,-0.2932,-0.2932,-0.292,-0.2922,-0.2921,-0.2923,-0.2924,-0.2924,-0.2929,-0.2924,-0.2921,-0.2921,-0.292,-0.2918,-0.2918,-0.2918,-0.2918,-0.2892,-0.2891,0,0,0,0,0,0,-0.2906,-0.29,-0.2932,-0.2933,-0.2918,-0.2922,-0.2923,-0.293,-0.2923,-0.2923,-0.2929,-0.2929,-0.2921,-0.2921,-0.292,-0.2932,-0.2918,-0.2918,-0.2918,-0.2892,-0.2892,-0.2891,0,0,0,0,0,0,-0.2905,-0.2908,-0.2932,-0.2918,-0.2921,-0.2923,-0.2931,-0.2931,-0.293,-0.2927,-0.2926,-0.293,-0.2921,-0.2921,-0.2916,-0.2932,-0.2918,-0.2917,-0.2893,-0.2892,-0.2891,-0.295,0,0,0,0,0,0,-0.2903,-0.2908,-0.291,-0.2919,-0.2922,-0.2946,-0.2932,-0.2931,-0.2935,-0.2934,-0.2928,-0.2927,-0.2921,-0.2916,-0.2916,-0.2931,-0.2917,-0.2894,-0.2893,-0.2892,-0.2949,-0.2951,-0.2953,0,0,0,0,0,-0.2902,-0.2913,-0.291,-0.2914,-0.2927,-0.2947,-0.2948,-0.2946,-0.2935,-0.2942,-0.2927,-0.2927,-0.2908,-0.2916,-0.2915,-0.2931,-0.2895,-0.2893,-0.2892,-0.2948,-0.2951,-0.2953,0,0,0,0,0,0,-0.2892,-0.2913,-0.291,-0.2925,-0.2938,-0.2946,-0.2949,-0.2948,-0.2942,-0.2936,-0.2926,-0.2924,-0.2925,-0.2911,-0.292,-0.2915,-0.2899,-0.2897,-0.2941,-0.2944,-0.2946,-0.2952,-0.2917,0,0,0,0,0,-0.2891,-0.2905,-0.2922,-0.2933,-0.2939,-0.2942,-0.2947,-0.295,-0.295,-0.2946,-0.2941,-0.2926,-0.2918,-0.2918,-0.2908,-0.2912,-0.2879,-0.2915,-0.2918,-0.292,-0.2921,-0.2881,-0.2881,-0.2886,-0.2886,-0.2886,0,0,-0.2887,-0.2903,-0.2907,-0.2931,-0.2935,-0.2959,-0.2944,-0.2959,-0.2976,-0.2947,-0.2956,-0.2937,-0.2918,-0.2921,-0.2919,-0.2914,-0.2898,-0.2918,-0.2921,-0.292,-0.288,-0.2879,-0.2879,-0.2886,-0.2886,-0.2886,0,0,-0.2898,-0.2902,-0.292,-0.2938,-0.2958,-0.2966,-0.2974,-0.2985,-0.2985,-0.2995,-0.2971,-0.2956,-0.2953,-0.2939,-0.2933,-0.2937,-0.291,-0.2933,-0.2958,-0.292,-0.2919,-0.2919,-0.2871,-0.2866,-0.2937,-0.2937,-0.2937,0,-0.2891,-0.2917,-0.2927,-0.2955,-0.2969,-0.2974,-0.2997,-0.3008,-0.3015,-0.3011,-0.3005,-0.2978,-0.2963,-0.2959,-0.2957,-0.2946,-0.2913,-0.2958,-0.2925,-0.2923,-0.2922,-0.2873,-0.2867,-0.2939,-0.2939,-0.2939,-0.2939,0,-0.2918,-0.2941,-0.2954,-0.2991,-0.3009,-0.3029,-0.3051,-0.3062,-0.306,-0.3061,-0.3053,-0.3027,-0.3006,-0.3002,-0.2986,-0.2968,-0.2944,-0.2934,-0.2926,-0.2925,-0.2873,-0.2865,-0.2943,-0.2942,-0.2941,-0.2941,0,0,-0.2878,-0.2958,-0.2956,-0.298,-0.3026,-0.3041,-0.3077,-0.3097,-0.3105,-0.3108,-0.3107,-0.309,-0.3061,-0.3049,-0.3022,-0.2995,-0.2953,-0.2963,-0.296,-0.293,-0.2859,-0.2802,-0.2787,-0.294,-0.294,-0.2939,-0.2825,0,-0.2885,-0.2943,-0.2982,-0.3026,-0.305,-0.3081,-0.3112,-0.3133,-0.3138,-0.3141,-0.3118,-0.3104,-0.3085,-0.3066,-0.3039,-0.2972,-0.2935,-0.2984,-0.2851,-0.2847,-0.2808,-0.2777,-0.2715,-0.2606,-0.2818,-0.2816,-0.2815,0,-0.2878,-0.292,-0.2966,-0.3037,-0.3049,-0.3079,-0.3109,-0.3142,-0.3159,-0.3162,-0.3153,-0.3131,-0.3093,-0.3074,-0.2973,-0.3004,-0.2933,-0.2884,-0.2879,-0.28,-0.2775,-0.2639,-0.2583,-0.2568,-0.2803,-0.2804,-0.2805,0,-0.2813,-0.2899,-0.2931,-0.2955,-0.3039,-0.3057,-0.3096,-0.3129,-0.3139,-0.3161,-0.3156,-0.313,-0.3088,-0.3023,-0.2924,-0.2942,-0.2805,-0.2812,-0.2695,-0.269,-0.2597,-0.2585,-0.2521,-0.2732,-0.2732,-0.2733,-0.2733,0,-0.2787,-0.2808,-0.2903,-0.2915,-0.2945,-0.3019,-0.3038,-0.3081,-0.3114,-0.3117,-0.3145,-0.3123,-0.307,-0.2993,-0.292,-0.2773,-0.2792,-0.2685,-0.2653,-0.2613,-0.2605,-0.2554,-0.2572,-0.2728,-0.2729,-0.273,-0.2731,0,-0.2694,-0.2766,-0.2802,-0.289,-0.2912,-0.2925,-0.2995,-0.3011,-0.3063,-0.3067,-0.3069,-0.3077,-0.2989,-0.2924,-0.2799,-0.2738,-0.2574,-0.2568,-0.2522,-0.2487,-0.2375,-0.2398,-0.2257,-0.2188,-0.2423,-0.2421,-0.2419,0,-0.2651,-0.2659,-0.2747,-0.2762,-0.2796,-0.2836,-0.2864,-0.2954,-0.2979,-0.3027,-0.302,-0.2963,-0.2906,-0.2725,-0.2614,-0.2471,-0.2457,-0.2333,-0.2357,-0.2347,-0.2349,-0.2351,-0.2304,-0.2251,-0.2248,-0.2245,-0.2243,0,-0.2542,-0.2573,-0.2598,-0.2639,-0.2673,-0.2707,-0.2763,-0.2777,-0.2881,-0.2879,-0.2864,-0.2825,-0.272,-0.2557,-0.2407,-0.2316,-0.229,-0.2277,-0.2273,-0.221,-0.2198,-0.2123,-0.2353,-0.2221,-0.2223,-0.2225,-0.2226,-0.2227,-0.2431,-0.2426,-0.2464,-0.2485,-0.2528,-0.2545,-0.2517,-0.2594,-0.2587,-0.2575,-0.2652,-0.2576,-0.2525,-0.2307,-0.2219,-0.2073,-0.2099,-0.2018,-0.2044,-0.2045,-0.1986,-0.2164,-0.2,-0.2,-0.2001,-0.2002,-0.2003,0,-0.2285,-0.2295,-0.2311,-0.2328,-0.2306,-0.2382,-0.2413,-0.236,-0.2303,-0.2365,-0.2321,-0.2289,-0.2155,-0.2115,-0.1983,-0.1882,-0.1834,-0.1831,-0.1837,-0.1796,-0.195,-0.1953,-0.1762,-0.1762,-0.1762,-0.1762,-0.1762,-0.1762,-0.2205,-0.2164,-0.2179,-0.2086,-0.2093,-0.2002,-0.1978,-0.1935,-0.1946,-0.1885,-0.1904,-0.1977,-0.1969,-0.2036,-0.1894,-0.1799,-0.1743,-0.1686,-0.1678,-0.1836,-0.1856,-0.1876,-0.1883,-0.1681,-0.1681,-0.1476,-0.1474,-0.1473]},{"header":{"parameterUnit":"m.s-1","parameterCategory":2,"la1":30.2991,"la2":30.254,"lo1":-89.0895,"lo2":-89.0444,"dy":0.0017,"dx":0.0017,"nx":28,"ny":28,"refTime":"2024-05-11T21:00:00:Z","depth":"0","parameterNumber":3,"parameterNumberName":"V-component_of_CURRENTS"},"data":[0,0,0,0,0,0,0,0,0,0,0,0,0,0,0,0,0,0,0,0,0,0,0,0,0,0,0,0,0,0,0,0,0,0,0,0,0,0,0,0,0,0,0,0,0,0,0,0,0,0,0,0,0,0,0,0,0,0,-0.0516,-0.0516,0,-0.0491,-0.0491,-0.0491,-0.0464,-0.0464,-0.0463,-0.0463,-0.0359,-0.0356,-0.0354,0,0,0,0,0,0,0,0,0,0,0,0,0,-0.0514,-0.0514,-0.0516,-0.0516,-0.0516,-0.0492,-0.0491,-0.0491,-0.0464,-0.0463,-0.0463,-0.0463,-0.0359,-0.0356,-0.0353,0,0,0,0,0,0,0,0,0,0,0,0,0,-0.0504,-0.0514,-0.0516,-0.05,-0.0498,-0.0492,-0.0491,-0.0491,-0.0464,-0.0463,-0.0463,-0.0463,-0.036,-0.0357,-0.0353,-0.0339,0,0,-0.0342,-0.034,0,0,0,0,0,0,0,0,-0.0504,-0.0504,-0.0503,-0.0501,-0.0499,-0.0481,-0.0452,-0.0436,-0.0464,-0.0476,-0.0463,-0.0462,-0.0393,-0.0387,-0.0383,-0.0334,-0.033,-0.0341,-0.0339,-0.0337,-0.0336,0,0,0,0,0,0,0,-0.0505,-0.0504,-0.0505,-0.0503,-0.0501,-0.0485,-0.0483,-0.0449,-0.0435,-0.0475,-0.0473,-0.0472,-0.0391,-0.0387,-0.038,-0.0328,-0.0341,-0.0338,-0.0336,-0.0334,-0.026,-0.026,0,0,0,0,0,0,-0.0512,-0.0505,-0.0506,-0.0505,-0.0502,-0.0486,-0.0484,-0.0487,-0.0437,-0.043,-0.0472,-0.0471,-0.0393,-0.0384,-0.0376,-0.0355,-0.0337,-0.0334,-0.0332,-0.026,-0.026,-0.026,0,0,0,0,0,0,-0.0512,-0.0512,-0.0507,-0.0505,-0.0503,-0.0486,-0.049,-0.0486,-0.0482,-0.0436,-0.0428,-0.0471,-0.0393,-0.0381,-0.0355,-0.035,-0.0332,-0.0329,-0.0259,-0.026,-0.026,-0.0312,0,0,0,0,0,0,-0.0512,-0.0513,-0.0519,-0.0506,-0.0504,-0.051,-0.049,-0.0486,-0.0482,-0.048,-0.0432,-0.0422,-0.0391,-0.0361,-0.0351,-0.0345,-0.0326,-0.0259,-0.026,-0.026,-0.031,-0.0314,-0.0318,0,0,0,0,0,-0.0512,-0.0529,-0.0519,-0.052,-0.0512,-0.0511,-0.0509,-0.0494,-0.0483,-0.0487,-0.0457,-0.0424,-0.0357,-0.0359,-0.0347,-0.0339,-0.0259,-0.0259,-0.026,-0.0308,-0.0313,-0.0318,0,0,0,0,0,0,-0.0536,-0.0527,-0.0517,-0.0531,-0.0522,-0.0507,-0.0511,-0.0498,-0.0479,-0.0475,-0.0429,-0.0418,-0.0394,-0.0362,-0.0365,-0.032,-0.0301,-0.03,-0.0342,-0.0346,-0.035,-0.0351,-0.0323,0,0,0,0,0,-0.0543,-0.055,-0.0537,-0.0548,-0.0545,-0.0527,-0.0524,-0.0515,-0.0496,-0.0488,-0.0455,-0.0419,-0.0388,-0.0365,-0.0337,-0.031,-0.0264,-0.0297,-0.0301,-0.0304,-0.0298,-0.0237,-0.0234,-0.0262,-0.0262,-0.0262,0,0,-0.0555,-0.0551,-0.0555,-0.0553,-0.0544,-0.0551,-0.0524,-0.0526,-0.0527,-0.0477,-0.0468,-0.0434,-0.0387,-0.0364,-0.0348,-0.0333,-0.0273,-0.0305,-0.0309,-0.03,-0.0237,-0.0234,-0.0232,-0.0263,-0.0263,-0.0263,0,0,-0.059,-0.0579,-0.0599,-0.0596,-0.0589,-0.0573,-0.0575,-0.056,-0.0546,-0.0534,-0.0499,-0.0463,-0.0421,-0.0382,-0.0357,-0.0362,-0.0302,-0.0354,-0.0364,-0.0305,-0.0302,-0.0299,-0.0238,-0.0229,-0.0348,-0.0348,-0.0348,0,-0.0607,-0.0628,-0.0604,-0.0624,-0.0626,-0.0585,-0.0607,-0.0587,-0.0565,-0.0547,-0.0539,-0.0464,-0.0427,-0.0379,-0.0385,-0.0369,-0.0327,-0.0351,-0.0309,-0.0305,-0.0301,-0.0239,-0.0228,-0.0351,-0.0351,-0.035,-0.035,0,-0.066,-0.0673,-0.0685,-0.069,-0.0687,-0.0698,-0.0669,-0.0652,-0.0626,-0.0598,-0.0553,-0.0502,-0.0452,-0.0435,-0.0411,-0.0361,-0.0339,-0.0329,-0.0298,-0.0301,-0.0236,-0.0224,-0.0354,-0.0354,-0.0353,-0.0352,0,0,-0.0707,-0.072,-0.0725,-0.0734,-0.0723,-0.0725,-0.0713,-0.0686,-0.0663,-0.0626,-0.0595,-0.0537,-0.0496,-0.0465,-0.042,-0.0364,-0.0301,-0.0337,-0.0333,-0.0276,-0.0166,-0.0116,-0.0097,-0.0284,-0.0283,-0.0281,-0.0132,0,-0.0755,-0.0806,-0.0794,-0.0825,-0.0844,-0.0799,-0.0793,-0.0757,-0.0705,-0.066,-0.0585,-0.054,-0.051,-0.0479,-0.0423,-0.0329,-0.0271,-0.0342,-0.017,-0.0165,-0.012,-0.0082,-0.0038,0.0102,-0.012,-0.0118,-0.0116,0,-0.0815,-0.0837,-0.0888,-0.0887,-0.089,-0.0899,-0.0856,-0.0838,-0.0755,-0.0714,-0.0641,-0.0577,-0.0485,-0.0468,-0.0301,-0.0348,-0.0265,-0.0193,-0.0185,-0.0109,-0.0091,0.007,0.0133,0.0263,-0.0097,-0.0099,-0.01,0,-0.0867,-0.0897,-0.0937,-0.0943,-0.094,-0.0943,-0.0925,-0.0859,-0.0829,-0.0732,-0.069,-0.058,-0.0507,-0.0397,-0.0245,-0.0271,-0.0058,-0.0072,0.0053,0.0057,0.0146,0.0155,0.0358,0.004,0.0039,0.0039,0.0039,0,-0.093,-0.0956,-0.0967,-0.0992,-0.1024,-0.0994,-0.0991,-0.0948,-0.0876,-0.0827,-0.072,-0.0645,-0.0485,-0.0345,-0.0235,-0.0035,-0.0043,0.007,0.0107,0.0128,0.0134,0.0291,0.0331,0.0045,0.0043,0.0042,0.0041,0,-0.0989,-0.0998,-0.1041,-0.1053,-0.1057,-0.1077,-0.1052,-0.1035,-0.095,-0.0877,-0.0846,-0.0673,-0.0473,-0.0304,-0.0091,-0.0,0.0264,0.0232,0.025,0.0285,0.05,0.0535,0.078,0.0861,0.0393,0.0395,0.0397,0,-0.1025,-0.1057,-0.1096,-0.1127,-0.114,-0.1154,-0.1162,-0.1092,-0.1056,-0.0884,-0.0852,-0.0636,-0.047,-0.013,0.0084,0.0316,0.0392,0.0472,0.0428,0.0545,0.0611,0.0629,0.068,0.0528,0.0531,0.0533,0.0535,0,-0.1086,-0.1102,-0.1139,-0.121,-0.1239,-0.1254,-0.1245,-0.1226,-0.1111,-0.1012,-0.0835,-0.068,-0.0323,-0.0007,0.0299,0.0419,0.0582,0.0525,0.0654,0.075,0.0779,0.0863,0.0392,0.0555,0.0553,0.0552,0.0551,0.055,-0.1121,-0.1171,-0.1225,-0.1284,-0.132,-0.1336,-0.1328,-0.1271,-0.1186,-0.0996,-0.0842,-0.0562,-0.0103,0.0352,0.0506,0.0832,0.0771,0.0902,0.094,0.0953,0.1021,0.0595,0.0786,0.0785,0.0785,0.0784,0.0784,0,-0.1163,-0.1218,-0.129,-0.1355,-0.1397,-0.1396,-0.1367,-0.1311,-0.1188,-0.0977,-0.0765,-0.0226,0.0217,0.0605,0.1078,0.1236,0.1259,0.1306,0.1347,0.1382,0.1028,0.1021,0.1263,0.1263,0.1263,0.1263,0.1263,0.1263,-0.1187,-0.1272,-0.1315,-0.14,-0.1436,-0.1444,-0.1415,-0.1295,-0.113,-0.0762,-0.0434,-0.0164,0.0405,0.1186,0.1604,0.1619,0.1745,0.1734,0.1801,0.155,0.1514,0.148,0.1487,0.1822,0.1823,0.2148,0.2151,0.2153]}],[{"header":{"parameterUnit":"m.s-1","parameterCategory":2,"la1":30.2991,"la2":30.254,"lo1":-89.0895,"lo2":-89.0444,"dy":0.0017,"dx":0.0017,"nx":28,"ny":28,"refTime":"2024-05-11T21:00:00:Z","depth":"2","parameterNumber":2,"parameterNumberName":"U-component_of_CURRENTS"},"data":[0,0,0,0,0,0,0,0,0,0,0,0,0,0,0,0,0,0,0,0,0,0,0,0,0,0,0,0,0,0,0,0,0,0,0,0,0,0,0,0,0,0,0,0,0,0,0,0,0,0,0,0,0,0,0,0,0,0,-0.2635,-0.2635,0,-0.2642,-0.2642,-0.2642,-0.264,-0.2641,-0.2641,-0.2641,-0.2651,-0.2651,-0.2651,0,0,0,0,0,0,0,0,0,0,0,0,0,-0.2589,-0.2589,-0.2635,-0.2635,-0.2635,-0.2642,-0.2642,-0.2642,-0.264,-0.2641,-0.2641,-0.2641,-0.2651,-0.2651,-0.2651,0,0,0,0,0,0,0,0,0,0,0,0,0,-0.2601,-0.259,-0.2635,-0.2638,-0.2638,-0.2642,-0.2642,-0.2642,-0.264,-0.2641,-0.2641,-0.2641,-0.2651,-0.2651,-0.2651,-0.2648,0,0,-0.2652,-0.2652,0,0,0,0,0,0,0,0,-0.26,-0.2602,-0.2637,-0.2638,-0.2638,-0.2643,-0.2629,-0.2645,-0.264,-0.2637,-0.2641,-0.2641,-0.265,-0.2651,-0.2647,-0.2649,-0.2649,-0.2652,-0.2652,-0.2652,-0.2652,0,0,0,0,0,0,0,-0.2599,-0.2602,-0.2635,-0.2637,-0.2638,-0.2628,-0.263,-0.2632,-0.264,-0.2637,-0.2638,-0.2643,-0.265,-0.2647,-0.2648,-0.2649,-0.2652,-0.2652,-0.2652,-0.2652,-0.2637,-0.2636,0,0,0,0,0,0,-0.2606,-0.2601,-0.2634,-0.2635,-0.2623,-0.2629,-0.2631,-0.2639,-0.264,-0.2641,-0.2643,-0.2643,-0.2647,-0.2647,-0.2648,-0.2666,-0.2652,-0.2652,-0.2652,-0.2637,-0.2637,-0.2636,0,0,0,0,0,0,-0.2605,-0.2609,-0.2634,-0.262,-0.2623,-0.263,-0.2639,-0.2639,-0.2644,-0.2645,-0.2645,-0.2649,-0.2647,-0.2648,-0.2649,-0.2665,-0.2652,-0.2653,-0.2638,-0.2637,-0.2636,-0.2687,0,0,0,0,0,0,-0.2604,-0.2608,-0.2612,-0.2621,-0.2624,-0.2647,-0.2639,-0.2639,-0.2648,-0.2649,-0.265,-0.2651,-0.2647,-0.2649,-0.2649,-0.2665,-0.2653,-0.2639,-0.2637,-0.2636,-0.2686,-0.2688,-0.269,0,0,0,0,0,-0.2602,-0.2612,-0.2612,-0.2616,-0.2631,-0.2648,-0.2649,-0.2652,-0.2649,-0.2656,-0.2648,-0.2651,-0.2642,-0.2649,-0.2649,-0.2666,-0.2639,-0.2638,-0.2637,-0.2686,-0.2688,-0.269,0,0,0,0,0,0,-0.2593,-0.2613,-0.2614,-0.2629,-0.2642,-0.2649,-0.2654,-0.2657,-0.2656,-0.2655,-0.265,-0.265,-0.2656,-0.2645,-0.2653,-0.2653,-0.2639,-0.2638,-0.2676,-0.2678,-0.268,-0.2687,-0.2653,0,0,0,0,0,-0.2593,-0.2606,-0.2623,-0.2634,-0.2641,-0.2647,-0.2653,-0.266,-0.2662,-0.2662,-0.2662,-0.2654,-0.2649,-0.2652,-0.2645,-0.2652,-0.2624,-0.2657,-0.2659,-0.2661,-0.2663,-0.2629,-0.2629,-0.2632,-0.2632,-0.2632,0,0,-0.2591,-0.2605,-0.2611,-0.2633,-0.2639,-0.266,-0.2651,-0.2668,-0.2684,-0.2664,-0.2677,-0.2664,-0.265,-0.2654,-0.2656,-0.2652,-0.2643,-0.266,-0.2662,-0.2663,-0.2628,-0.2628,-0.2627,-0.2631,-0.2631,-0.2631,0,0,-0.2599,-0.2608,-0.2623,-0.264,-0.2661,-0.2669,-0.2678,-0.2691,-0.2695,-0.2708,-0.269,-0.2682,-0.2686,-0.2672,-0.2667,-0.2671,-0.2653,-0.2672,-0.2695,-0.2662,-0.2662,-0.2662,-0.2621,-0.2617,-0.2676,-0.2676,-0.2676,0,-0.2596,-0.2618,-0.2629,-0.2653,-0.2666,-0.2677,-0.2698,-0.2709,-0.272,-0.272,-0.272,-0.2704,-0.2693,-0.2689,-0.2689,-0.2679,-0.2654,-0.2695,-0.2667,-0.2666,-0.2664,-0.2623,-0.2618,-0.2678,-0.2678,-0.2678,-0.2677,0,-0.2617,-0.2638,-0.265,-0.2683,-0.27,-0.2719,-0.2741,-0.2755,-0.2761,-0.2765,-0.2765,-0.2745,-0.2732,-0.2728,-0.2716,-0.2702,-0.2684,-0.2674,-0.2668,-0.2668,-0.2623,-0.2617,-0.2681,-0.2681,-0.268,-0.2679,0,0,-0.2585,-0.2652,-0.2652,-0.2673,-0.2716,-0.2729,-0.2763,-0.2783,-0.2796,-0.2805,-0.281,-0.2797,-0.278,-0.2769,-0.2748,-0.2725,-0.2691,-0.2702,-0.27,-0.2674,-0.2614,-0.2556,-0.2543,-0.2683,-0.2682,-0.2681,-0.2585,0,-0.2591,-0.2638,-0.2672,-0.2711,-0.2731,-0.2763,-0.2791,-0.2813,-0.2826,-0.2835,-0.2818,-0.2813,-0.2799,-0.2788,-0.2766,-0.2709,-0.2677,-0.2718,-0.2607,-0.2603,-0.2562,-0.2535,-0.2377,-0.2275,-0.2578,-0.2577,-0.2577,0,-0.2586,-0.2619,-0.2658,-0.272,-0.2731,-0.276,-0.2794,-0.2825,-0.2847,-0.2856,-0.2856,-0.2842,-0.2812,-0.2797,-0.2713,-0.2742,-0.268,-0.2637,-0.2632,-0.2557,-0.2533,-0.2323,-0.2251,-0.2565,-0.2566,-0.2567,-0.2568,0,-0.253,-0.2603,-0.263,-0.2651,-0.2724,-0.2745,-0.2782,-0.2819,-0.283,-0.2861,-0.2863,-0.2845,-0.2814,-0.2759,-0.2676,-0.2691,-0.2574,-0.2579,-0.2468,-0.2463,-0.2295,-0.2276,-0.2508,-0.2508,-0.2508,-0.2509,-0.2509,0,-0.2507,-0.2526,-0.2609,-0.2619,-0.2648,-0.2716,-0.274,-0.2782,-0.2819,-0.2824,-0.2859,-0.2841,-0.2801,-0.2736,-0.2673,-0.2543,-0.2564,-0.246,-0.2431,-0.2307,-0.2291,-0.252,-0.2522,-0.2505,-0.2506,-0.2507,-0.2507,0,-0.2428,-0.249,-0.2521,-0.2599,-0.262,-0.2636,-0.2703,-0.2721,-0.2778,-0.2786,-0.2791,-0.2805,-0.2731,-0.2678,-0.257,-0.2513,-0.2414,-0.2359,-0.2216,-0.2173,-0.2328,-0.2334,-0.223,-0.2227,-0.2224,-0.2222,-0.2221,0,-0.239,-0.2397,-0.2474,-0.2487,-0.252,-0.2561,-0.2586,-0.2673,-0.2696,-0.275,-0.2741,-0.27,-0.2645,-0.2488,-0.238,-0.2251,-0.2315,-0.2038,-0.2042,-0.2315,-0.2297,-0.2308,-0.2317,-0.183,-0.1825,-0.1821,-0.1818,0,-0.2292,-0.2322,-0.2343,-0.2377,-0.2409,-0.2438,-0.249,-0.25,-0.26,-0.2601,-0.2588,-0.2551,-0.2454,-0.2251,-0.2116,-0.2024,-0.2057,-0.1956,-0.2245,-0.1943,-0.1935,-0.192,-0.1942,-0.1783,-0.1787,-0.1789,-0.1791,-0.1792,-0.2195,-0.2189,-0.222,-0.2236,-0.2275,-0.2283,-0.2253,-0.2319,-0.2309,-0.2286,-0.2365,-0.2253,-0.2223,-0.1927,-0.18,-0.1695,-0.1833,-0.1742,-0.1755,-0.1771,-0.176,-0.175,-0.1561,-0.1563,-0.1565,-0.1566,-0.1568,0,-0.206,-0.2067,-0.2077,-0.2086,-0.206,-0.2134,-0.2153,-0.2088,-0.2025,-0.2051,-0.2002,-0.177,-0.1649,-0.1615,-0.1413,-0.137,-0.1361,-0.13,-0.1295,-0.133,-0.1361,-0.1331,-0.1016,-0.1015,-0.1013,-0.1011,0,0,-0.1986,-0.1941,-0.1949,-0.1852,-0.1859,-0.1765,-0.1737,-0.1671,-0.1647,-0.1518,-0.1461,-0.1567,-0.1596,-0.1316,-0.1241,-0.11,-0.1203,-0.1042,-0.1487,-0.1518,-0.1547,-0.1619,-0.1612,0,0,0,0,0]},{"header":{"parameterUnit":"m.s-1","parameterCategory":2,"la1":30.2991,"la2":30.254,"lo1":-89.0895,"lo2":-89.0444,"dy":0.0017,"dx":0.0017,"nx":28,"ny":28,"refTime":"2024-05-11T21:00:00:Z","depth":"2","parameterNumber":3,"parameterNumberName":"V-component_of_CURRENTS"},"data":[0,0,0,0,0,0,0,0,0,0,0,0,0,0,0,0,0,0,0,0,0,0,0,0,0,0,0,0,0,0,0,0,0,0,0,0,0,0,0,0,0,0,0,0,0,0,0,0,0,0,0,0,0,0,0,0,0,0,-0.0498,-0.0498,0,-0.0479,-0.0479,-0.0478,-0.0458,-0.0458,-0.0457,-0.0457,-0.0364,-0.0362,-0.036,0,0,0,0,0,0,0,0,0,0,0,0,0,-0.0493,-0.0493,-0.0498,-0.0498,-0.0498,-0.0479,-0.0479,-0.0478,-0.0458,-0.0458,-0.0457,-0.0457,-0.0365,-0.0363,-0.036,0,0,0,0,0,0,0,0,0,0,0,0,0,-0.0486,-0.0493,-0.0498,-0.0486,-0.0484,-0.0479,-0.0479,-0.0478,-0.0458,-0.0458,-0.0457,-0.0457,-0.0366,-0.0363,-0.0359,-0.0345,0,0,-0.0349,-0.0348,0,0,0,0,0,0,0,0,-0.0486,-0.0486,-0.0488,-0.0487,-0.0485,-0.0471,-0.0443,-0.043,-0.0458,-0.0467,-0.0457,-0.0457,-0.0394,-0.0388,-0.0385,-0.0341,-0.0337,-0.0349,-0.0347,-0.0345,-0.0344,0,0,0,0,0,0,0,-0.0487,-0.0486,-0.049,-0.0488,-0.0486,-0.0473,-0.0472,-0.044,-0.0431,-0.0466,-0.0465,-0.0464,-0.0393,-0.0389,-0.0383,-0.0336,-0.0349,-0.0346,-0.0344,-0.0342,-0.0274,-0.0274,0,0,0,0,0,0,-0.0492,-0.0487,-0.049,-0.0489,-0.0486,-0.0474,-0.0472,-0.0475,-0.0433,-0.0427,-0.0465,-0.0463,-0.0395,-0.0387,-0.0379,-0.0357,-0.0345,-0.0342,-0.034,-0.0274,-0.0274,-0.0274,0,0,0,0,0,0,-0.0492,-0.0493,-0.0491,-0.0488,-0.0487,-0.0474,-0.0478,-0.0475,-0.0472,-0.0432,-0.0425,-0.0464,-0.0394,-0.0384,-0.0361,-0.0353,-0.0341,-0.0338,-0.0273,-0.0274,-0.0274,-0.0314,0,0,0,0,0,0,-0.0492,-0.0493,-0.0499,-0.0489,-0.0487,-0.0494,-0.0478,-0.0475,-0.0472,-0.0471,-0.0429,-0.0421,-0.0393,-0.0366,-0.0357,-0.0348,-0.0335,-0.0273,-0.0274,-0.0274,-0.0312,-0.0316,-0.0318,0,0,0,0,0,-0.0492,-0.0507,-0.0499,-0.05,-0.0495,-0.0494,-0.0492,-0.0481,-0.0473,-0.0476,-0.0451,-0.0422,-0.0362,-0.0364,-0.0354,-0.0343,-0.0273,-0.0273,-0.0274,-0.0311,-0.0315,-0.0318,0,0,0,0,0,0,-0.0512,-0.0506,-0.0498,-0.051,-0.0503,-0.0491,-0.0495,-0.0485,-0.0469,-0.0466,-0.0426,-0.0416,-0.0394,-0.0366,-0.0369,-0.0326,-0.0312,-0.031,-0.0343,-0.0347,-0.035,-0.035,-0.0332,0,0,0,0,0,-0.0518,-0.0524,-0.0514,-0.0524,-0.0522,-0.0508,-0.0506,-0.0498,-0.0483,-0.0476,-0.0448,-0.0416,-0.0388,-0.0367,-0.0342,-0.0316,-0.0274,-0.0302,-0.0305,-0.0308,-0.0302,-0.0242,-0.0239,-0.0276,-0.0276,-0.0276,0,0,-0.0528,-0.0526,-0.053,-0.0528,-0.0521,-0.0527,-0.0506,-0.0508,-0.0508,-0.0467,-0.0457,-0.0428,-0.0386,-0.0363,-0.0349,-0.0337,-0.0276,-0.0309,-0.0311,-0.0303,-0.0242,-0.0238,-0.0235,-0.0276,-0.0276,-0.0276,0,0,-0.0558,-0.055,-0.0567,-0.0564,-0.0559,-0.0545,-0.0547,-0.0535,-0.0524,-0.0513,-0.0482,-0.0448,-0.0412,-0.0375,-0.0352,-0.0353,-0.03,-0.0348,-0.0353,-0.0295,-0.0291,-0.0287,-0.0232,-0.0222,-0.0342,-0.0342,-0.0342,0,-0.0573,-0.0591,-0.0571,-0.0588,-0.0591,-0.0556,-0.0574,-0.0556,-0.0538,-0.0521,-0.0516,-0.0449,-0.0414,-0.0367,-0.0371,-0.0357,-0.032,-0.0343,-0.0298,-0.0293,-0.0288,-0.0232,-0.0221,-0.0344,-0.0344,-0.0344,-0.0343,0,-0.0618,-0.063,-0.064,-0.0644,-0.0641,-0.0651,-0.0625,-0.061,-0.0588,-0.0563,-0.0521,-0.0474,-0.043,-0.0412,-0.0392,-0.034,-0.0323,-0.0315,-0.0288,-0.0287,-0.0228,-0.0216,-0.0347,-0.0346,-0.0345,-0.0345,0,0,-0.066,-0.067,-0.0675,-0.0684,-0.0673,-0.0676,-0.0662,-0.0636,-0.0617,-0.0581,-0.0553,-0.0496,-0.0461,-0.0433,-0.0393,-0.0336,-0.0273,-0.0315,-0.0311,-0.0258,-0.0144,-0.0106,-0.0088,-0.0258,-0.0256,-0.0254,-0.0117,0,-0.0703,-0.0748,-0.0735,-0.0763,-0.078,-0.074,-0.0733,-0.0699,-0.0652,-0.0612,-0.054,-0.0499,-0.0471,-0.0445,-0.0388,-0.0301,-0.0243,-0.0311,-0.0154,-0.0149,-0.0113,-0.0074,-0.0096,0.0026,-0.0105,-0.0103,-0.0102,0,-0.0757,-0.0776,-0.0822,-0.0821,-0.0824,-0.0833,-0.0796,-0.0778,-0.07,-0.0664,-0.0595,-0.0537,-0.0446,-0.043,-0.027,-0.0316,-0.0237,-0.0167,-0.016,-0.0099,-0.0088,0.0005,0.0054,-0.0081,-0.0083,-0.0084,-0.0086,0,-0.0808,-0.0833,-0.087,-0.0876,-0.0872,-0.0877,-0.0861,-0.08,-0.0773,-0.0683,-0.0647,-0.054,-0.0474,-0.0365,-0.0221,-0.0244,-0.0041,-0.0054,0.0059,0.0063,0.0089,0.0092,0.0058,0.0058,0.0058,0.0058,0.0057,0,-0.0866,-0.0891,-0.09,-0.0925,-0.0957,-0.0928,-0.093,-0.089,-0.0824,-0.078,-0.0678,-0.0611,-0.0453,-0.0321,-0.0213,-0.0026,-0.003,0.0077,0.0109,0.0073,0.0073,0.0011,0.0004,0.0063,0.0062,0.0061,0.006,0,-0.0925,-0.0931,-0.0972,-0.0984,-0.099,-0.1012,-0.0992,-0.0978,-0.0901,-0.0837,-0.0808,-0.0646,-0.0458,-0.0293,-0.0087,0.0001,0.0162,0.0222,0.0172,0.0196,0.0221,0.021,0.0363,0.0366,0.0368,0.037,0.0372,0,-0.096,-0.099,-0.1028,-0.106,-0.1073,-0.109,-0.11,-0.1036,-0.1004,-0.0849,-0.082,-0.062,-0.0466,-0.0144,0.0056,0.0277,0.025,0.0368,0.0324,0.0241,0.0257,0.0242,0.0228,0.0342,0.0344,0.0345,0.0345,0,-0.102,-0.1036,-0.1072,-0.1141,-0.1173,-0.1189,-0.1185,-0.1169,-0.1064,-0.0977,-0.0816,-0.0673,-0.0345,-0.0078,0.0209,0.0317,0.033,0.0397,0.035,0.0261,0.0231,0.0242,0.0228,0.0354,0.0354,0.0353,0.0352,0.0352,-0.1057,-0.1105,-0.1157,-0.1217,-0.1254,-0.1271,-0.1267,-0.1216,-0.1142,-0.0967,-0.0829,-0.058,-0.032,0.0104,0.0301,0.0464,0.0446,0.047,0.0463,0.0455,0.0421,0.0396,0.0544,0.0545,0.0545,0.0545,0.0545,0,-0.1101,-0.1153,-0.1223,-0.1287,-0.133,-0.1331,-0.1308,-0.1255,-0.1145,-0.0955,-0.0764,-0.0454,-0.0143,0.0109,0.039,0.0556,0.0517,0.0564,0.0483,0.0474,0.0466,0.0428,0.0556,0.0556,0.0557,0.0557,0,0,-0.1125,-0.1205,-0.1246,-0.1332,-0.137,-0.1382,-0.1357,-0.1242,-0.1093,-0.0874,-0.0679,-0.0429,-0.0119,0.0083,0.0297,0.044,0.0404,0.0439,0.0414,0.0284,0.0274,0.0397,0.0327,0,0,0,0,0]}],[{"header":{"parameterUnit":"m.s-1","parameterCategory":2,"la1":30.2991,"la2":30.254,"lo1":-89.0895,"lo2":-89.0444,"dy":0.0017,"dx":0.0017,"nx":28,"ny":28,"refTime":"2024-05-11T21:00:00:Z","depth":"4","parameterNumber":2,"parameterNumberName":"U-component_of_CURRENTS"},"data":[0,0,0,0,0,0,0,0,0,0,0,0,0,0,0,0,0,0,0,0,0,0,0,0,0,0,0,0,0,0,0,0,0,0,0,0,0,0,0,0,0,0,0,0,0,0,0,0,0,0,0,0,0,0,0,0,0,0,-0.1739,-0.174,0,-0.1794,-0.1794,-0.1795,-0.1852,-0.1853,-0.1854,-0.1855,-0.1951,-0.1952,-0.1954,0,0,0,0,0,0,0,0,0,0,0,0,0,-0.1651,-0.1652,-0.1739,-0.174,-0.1741,-0.1794,-0.1794,-0.1795,-0.1852,-0.1853,-0.1854,-0.1855,-0.195,-0.1952,-0.1954,0,0,0,0,0,0,0,0,0,0,0,0,0,-0.1694,-0.1653,-0.1739,-0.1777,-0.1782,-0.1794,-0.1794,-0.1795,-0.1851,-0.1853,-0.1855,-0.1856,-0.195,-0.1952,-0.1954,-0.1939,0,0,-0.1962,-0.1963,0,0,0,0,0,0,0,0,-0.1691,-0.1696,-0.1771,-0.1775,-0.1779,-0.182,-0.1799,-0.1846,-0.1851,-0.1822,-0.1855,-0.1857,-0.1911,-0.1917,-0.192,-0.1944,-0.1948,-0.1962,-0.1963,-0.1965,-0.1965,0,0,0,0,0,0,0,-0.1688,-0.1694,-0.1758,-0.1772,-0.1777,-0.1781,-0.1789,-0.1807,-0.1856,-0.1825,-0.183,-0.1839,-0.1914,-0.1917,-0.1923,-0.1949,-0.1962,-0.1964,-0.1966,-0.1967,-0.2025,-0.2025,0,0,0,0,0,0,-0.1686,-0.1692,-0.1757,-0.176,-0.1741,-0.1782,-0.179,-0.1803,-0.1856,-0.1865,-0.1838,-0.1842,-0.1912,-0.192,-0.1926,-0.1986,-0.1964,-0.1967,-0.1968,-0.2025,-0.2025,-0.2025,0,0,0,0,0,0,-0.1684,-0.1692,-0.1754,-0.1729,-0.1738,-0.1782,-0.1796,-0.1804,-0.1844,-0.1865,-0.1876,-0.1875,-0.1914,-0.1923,-0.1964,-0.1988,-0.1968,-0.197,-0.2025,-0.2025,-0.2025,-0.2058,0,0,0,0,0,0,-0.1682,-0.1691,-0.1711,-0.1729,-0.1739,-0.1784,-0.1795,-0.1804,-0.1846,-0.1852,-0.1899,-0.1908,-0.1916,-0.196,-0.1966,-0.1991,-0.1972,-0.2025,-0.2025,-0.2025,-0.2057,-0.206,-0.2062,0,0,0,0,0,-0.1678,-0.1698,-0.1712,-0.1721,-0.1762,-0.1785,-0.1791,-0.1825,-0.1847,-0.1866,-0.1894,-0.1908,-0.1966,-0.1962,-0.197,-0.1995,-0.2025,-0.2025,-0.2025,-0.2056,-0.2059,-0.2062,0,0,0,0,0,0,-0.1672,-0.1706,-0.1722,-0.1753,-0.1778,-0.1797,-0.1821,-0.1842,-0.1878,-0.1895,-0.1914,-0.1923,-0.1965,-0.197,-0.1966,-0.2009,-0.1996,-0.1998,-0.2017,-0.202,-0.2022,-0.2015,-0.1974,0,0,0,0,0,-0.1679,-0.1705,-0.1732,-0.1759,-0.1774,-0.1803,-0.1823,-0.1847,-0.1874,-0.1893,-0.1924,-0.1948,-0.1963,-0.1987,-0.2,-0.203,-0.2013,-0.2047,-0.205,-0.2052,-0.2049,-0.2032,-0.2033,-0.2026,-0.2026,-0.2026,0,0,-0.1686,-0.1707,-0.1725,-0.1761,-0.1784,-0.1809,-0.182,-0.1859,-0.1886,-0.1897,-0.195,-0.1963,-0.1971,-0.2,-0.2019,-0.2016,-0.2045,-0.2052,-0.2054,-0.205,-0.2032,-0.2033,-0.2034,-0.2026,-0.2026,-0.2026,0,0,-0.1699,-0.1732,-0.1755,-0.1779,-0.1821,-0.1835,-0.1854,-0.1891,-0.1918,-0.196,-0.1967,-0.1987,-0.2032,-0.2029,-0.2034,-0.2054,-0.2055,-0.2072,-0.2088,-0.2072,-0.2073,-0.2073,-0.2055,-0.2053,-0.2077,-0.2077,-0.2077,0,-0.171,-0.1739,-0.1765,-0.1792,-0.1816,-0.1851,-0.1878,-0.1903,-0.1951,-0.1968,-0.1988,-0.2027,-0.2037,-0.205,-0.2056,-0.2061,-0.2055,-0.2081,-0.2076,-0.2075,-0.2075,-0.2057,-0.2054,-0.2079,-0.2079,-0.2079,-0.2079,0,-0.1729,-0.1766,-0.1783,-0.1826,-0.1854,-0.1886,-0.192,-0.1957,-0.1995,-0.2013,-0.2052,-0.2059,-0.2079,-0.2085,-0.2083,-0.2087,-0.2084,-0.2078,-0.207,-0.2078,-0.2058,-0.2055,-0.2081,-0.2081,-0.208,-0.208,0,0,-0.1712,-0.1784,-0.1792,-0.1821,-0.1878,-0.1898,-0.1946,-0.1983,-0.2016,-0.2057,-0.2086,-0.2102,-0.211,-0.2113,-0.2112,-0.2101,-0.209,-0.2097,-0.2096,-0.2082,-0.2062,-0.194,-0.1924,-0.2093,-0.2093,-0.2092,-0.205,0,-0.1721,-0.1771,-0.1807,-0.1861,-0.1887,-0.1936,-0.1973,-0.2015,-0.2054,-0.209,-0.2096,-0.2125,-0.212,-0.2138,-0.2124,-0.2102,-0.2084,-0.2102,-0.2054,-0.2052,-0.1944,-0.1917,-0.2091,-0.2048,-0.2047,-0.2047,-0.2046,0,-0.1717,-0.1753,-0.1806,-0.1877,-0.1895,-0.1937,-0.2001,-0.2042,-0.209,-0.212,-0.2146,-0.2158,-0.2155,-0.2148,-0.211,-0.213,-0.2096,-0.2072,-0.207,-0.1939,-0.1922,-0.2037,-0.2041,-0.2041,-0.2041,-0.2042,-0.2042,0,-0.1668,-0.1748,-0.1792,-0.1818,-0.1902,-0.1942,-0.1992,-0.2053,-0.208,-0.2142,-0.2164,-0.2175,-0.2177,-0.2149,-0.2104,-0.2116,-0.2049,-0.2056,-0.1911,-0.1903,-0.2015,-0.2015,-0.2012,-0.2012,-0.2012,-0.2012,-0.2012,0,-0.1639,-0.1678,-0.1782,-0.1803,-0.1855,-0.193,-0.1987,-0.2039,-0.2099,-0.2115,-0.2176,-0.217,-0.2178,-0.2144,-0.2107,-0.1987,-0.2048,-0.1895,-0.1873,-0.203,-0.2033,-0.2013,-0.2014,-0.2011,-0.2011,-0.2011,-0.2012,0,-0.1567,-0.1641,-0.1694,-0.1798,-0.1833,-0.1872,-0.1971,-0.1999,-0.2082,-0.2104,-0.2123,-0.2158,-0.2115,-0.21,-0.2041,-0.1965,-0.1885,-0.1827,-0.1993,-0.1984,-0.1753,-0.1756,-0.166,-0.1655,-0.1651,-0.1647,-0.1644,0,-0.1528,-0.1551,-0.1669,-0.17,-0.1753,-0.1827,-0.1866,-0.1969,-0.1993,-0.2069,-0.2055,-0.2057,-0.206,-0.1867,-0.1882,-0.1792,-0.1766,-0.1723,-0.1733,-0.1723,-0.1713,-0.1723,-0.1731,-0.1638,-0.1637,-0.1636,-0.1635,0,-0.1438,-0.15,-0.1539,-0.1603,-0.1661,-0.1707,-0.1778,-0.1776,-0.1881,-0.1979,-0.1919,-0.1876,-0.1819,-0.1762,-0.17,-0.1642,-0.1754,-0.168,-0.1688,-0.1697,-0.1696,-0.1692,-0.1705,-0.162,-0.1622,-0.1624,-0.1624,0,-0.1366,-0.1374,-0.1436,-0.1474,-0.1543,-0.1549,-0.161,-0.1627,-0.1657,-0.1761,-0.1733,-0.1742,-0.1793,-0.1682,-0.1627,-0.1557,-0.1534,-0.1484,-0.1502,-0.1518,-0.149,-0.1469,-0.1284,0,0,0,0,0,-0.1277,-0.1267,-0.1297,-0.1326,-0.139,-0.1422,-0.1524,-0.159,-0.1702,-0.1612,-0.1666,-0.161,-0.1525,-0.1532,-0.1424,-0.1559,-0.154,-0.1429,-0.1494,-0.154,-0.1557,-0.1536,0,0,0,0,0,0,-0.1216,-0.1237,-0.1242,-0.1183,-0.1178,-0.1221,-0.1278,-0.1362,-0.1327,-0.1451,-0.1405,-0.1503,-0.1437,-0.154,-0.1381,-0.1384,-0.1391,-0.1453,-0.1449,-0.1531,-0.1546,-0.1559,-0.1543,0,0,0,0,0]},{"header":{"parameterUnit":"m.s-1","parameterCategory":2,"la1":30.2991,"la2":30.254,"lo1":-89.0895,"lo2":-89.0444,"dy":0.0017,"dx":0.0017,"nx":28,"ny":28,"refTime":"2024-05-11T21:00:00:Z","depth":"4","parameterNumber":3,"parameterNumberName":"V-component_of_CURRENTS"},"data":[0,0,0,0,0,0,0,0,0,0,0,0,0,0,0,0,0,0,0,0,0,0,0,0,0,0,0,0,0,0,0,0,0,0,0,0,0,0,0,0,0,0,0,0,0,0,0,0,0,0,0,0,0,0,0,0,0,0,-0.0354,-0.0354,0,-0.0355,-0.0355,-0.0355,-0.0357,-0.0357,-0.0357,-0.0357,-0.0309,-0.0307,-0.0306,0,0,0,0,0,0,0,0,0,0,0,0,0,-0.0335,-0.0335,-0.0354,-0.0354,-0.0354,-0.0355,-0.0355,-0.0355,-0.0357,-0.0357,-0.0357,-0.0357,-0.0309,-0.0308,-0.0306,0,0,0,0,0,0,0,0,0,0,0,0,0,-0.034,-0.0335,-0.0354,-0.0355,-0.0355,-0.0355,-0.0355,-0.0355,-0.0357,-0.0357,-0.0357,-0.0357,-0.031,-0.0308,-0.0306,-0.0291,0,0,-0.0299,-0.0299,0,0,0,0,0,0,0,0,-0.0339,-0.034,-0.0355,-0.0355,-0.0355,-0.0357,-0.0331,-0.0331,-0.0357,-0.0356,-0.0357,-0.0357,-0.032,-0.0318,-0.0317,-0.0288,-0.0286,-0.0299,-0.0298,-0.0297,-0.0297,0,0,0,0,0,0,0,-0.0339,-0.034,-0.0354,-0.0355,-0.0355,-0.035,-0.0351,-0.0331,-0.0336,-0.0356,-0.0356,-0.0357,-0.032,-0.0319,-0.0316,-0.0286,-0.0299,-0.0298,-0.0296,-0.0295,-0.0253,-0.0253,0,0,0,0,0,0,-0.0341,-0.034,-0.0354,-0.0354,-0.0348,-0.0351,-0.0352,-0.0356,-0.0337,-0.0335,-0.0357,-0.0357,-0.0323,-0.0319,-0.0314,-0.0299,-0.0297,-0.0295,-0.0294,-0.0253,-0.0253,-0.0253,0,0,0,0,0,0,-0.0341,-0.0342,-0.0353,-0.0347,-0.0348,-0.0351,-0.0355,-0.0356,-0.0361,-0.0339,-0.0336,-0.0363,-0.0323,-0.0317,-0.0308,-0.0297,-0.0294,-0.0292,-0.0252,-0.0253,-0.0253,-0.0267,0,0,0,0,0,0,-0.034,-0.0342,-0.0349,-0.0347,-0.0349,-0.0359,-0.0355,-0.0356,-0.0362,-0.0362,-0.0343,-0.0338,-0.0322,-0.0311,-0.0306,-0.0294,-0.0291,-0.0252,-0.0253,-0.0253,-0.0266,-0.0267,-0.0268,0,0,0,0,0,-0.034,-0.035,-0.035,-0.0352,-0.0358,-0.0359,-0.036,-0.0361,-0.0362,-0.0366,-0.0357,-0.0339,-0.0308,-0.031,-0.0304,-0.0291,-0.0252,-0.0252,-0.0253,-0.0266,-0.0267,-0.0268,0,0,0,0,0,0,-0.0349,-0.0351,-0.0351,-0.0363,-0.0363,-0.036,-0.0367,-0.0365,-0.0362,-0.0364,-0.0343,-0.0338,-0.0326,-0.031,-0.0312,-0.0281,-0.0276,-0.0275,-0.0288,-0.0289,-0.029,-0.0288,-0.0289,0,0,0,0,0,-0.0353,-0.0361,-0.036,-0.037,-0.0371,-0.0369,-0.0372,-0.0372,-0.0368,-0.0368,-0.0355,-0.0339,-0.032,-0.0308,-0.0294,-0.0275,-0.0245,-0.0263,-0.0264,-0.0265,-0.026,-0.0208,-0.0203,-0.0253,-0.0253,-0.0253,0,0,-0.036,-0.0363,-0.0368,-0.0372,-0.0373,-0.0378,-0.0371,-0.0379,-0.038,-0.0361,-0.0361,-0.0345,-0.0319,-0.0302,-0.0294,-0.0287,-0.0237,-0.0265,-0.0266,-0.026,-0.0208,-0.0202,-0.0198,-0.0254,-0.0254,-0.0254,0,0,-0.0378,-0.038,-0.0392,-0.0394,-0.0398,-0.0391,-0.0395,-0.0395,-0.0391,-0.0389,-0.0373,-0.0351,-0.0333,-0.0303,-0.0287,-0.0283,-0.0249,-0.0283,-0.0278,-0.0228,-0.0223,-0.0218,-0.0179,-0.0171,-0.0277,-0.0277,-0.0277,0,-0.0388,-0.0403,-0.0396,-0.0408,-0.0414,-0.0399,-0.0413,-0.0402,-0.0399,-0.0391,-0.0393,-0.0352,-0.0328,-0.0289,-0.0289,-0.0282,-0.0257,-0.0275,-0.0228,-0.0223,-0.0217,-0.0178,-0.0169,-0.0278,-0.0278,-0.0278,-0.0278,0,-0.0414,-0.0427,-0.0435,-0.0442,-0.0444,-0.0455,-0.044,-0.0435,-0.0428,-0.0413,-0.0386,-0.0354,-0.0327,-0.0312,-0.0298,-0.025,-0.0246,-0.0239,-0.0223,-0.0213,-0.0173,-0.0162,-0.0279,-0.0279,-0.0279,-0.0278,0,0,-0.0439,-0.0452,-0.0457,-0.047,-0.0467,-0.0473,-0.0463,-0.0449,-0.0443,-0.0418,-0.0402,-0.0355,-0.0335,-0.0315,-0.0287,-0.0236,-0.0176,-0.0225,-0.0222,-0.0183,-0.0073,-0.0083,-0.0073,-0.0164,-0.0162,-0.0161,-0.0061,0,-0.0465,-0.0499,-0.0494,-0.052,-0.0536,-0.0516,-0.0512,-0.0493,-0.0467,-0.0443,-0.0384,-0.0361,-0.0336,-0.0324,-0.0267,-0.0204,-0.015,-0.0204,-0.0091,-0.0088,-0.0094,-0.0061,-0.0155,-0.0053,-0.0051,-0.0049,-0.0048,0,-0.0498,-0.0516,-0.0554,-0.0567,-0.0572,-0.0585,-0.0574,-0.0562,-0.0508,-0.0487,-0.0435,-0.0395,-0.0317,-0.0303,-0.017,-0.021,-0.0143,-0.0087,-0.0082,-0.0077,-0.0078,-0.0064,-0.0029,-0.0031,-0.0032,-0.0033,-0.0035,0,-0.0532,-0.0558,-0.0593,-0.0601,-0.0609,-0.0623,-0.062,-0.0585,-0.0572,-0.0509,-0.0491,-0.04,-0.0353,-0.0255,-0.0142,-0.0156,0.0005,0.0001,0.006,0.006,0.0044,0.0038,0.0103,0.0103,0.0102,0.0102,0.0102,0,-0.0565,-0.0593,-0.0619,-0.0642,-0.0683,-0.0669,-0.0688,-0.0665,-0.0625,-0.06,-0.052,-0.0474,-0.0339,-0.0234,-0.0138,-0.0006,0.0012,0.0073,0.0092,0.0034,0.0025,0.0051,0.0044,0.0106,0.0105,0.0104,0.0104,0,-0.0599,-0.0615,-0.066,-0.069,-0.0706,-0.0735,-0.0746,-0.0746,-0.0701,-0.0661,-0.0642,-0.0519,-0.0378,-0.0241,-0.0068,-0.0002,0.0124,0.0166,0.0095,0.0106,0.0142,0.0133,0.024,0.0241,0.0241,0.0242,0.0242,0,-0.0617,-0.0646,-0.0707,-0.0744,-0.0768,-0.0803,-0.0826,-0.0795,-0.078,-0.0682,-0.066,-0.052,-0.0426,-0.018,-0.0047,0.0143,0.0163,0.0218,0.0184,0.0152,0.016,0.015,0.014,0.0243,0.0243,0.0243,0.0243,0,-0.0649,-0.0679,-0.0718,-0.0797,-0.0845,-0.0877,-0.0895,-0.0886,-0.0823,-0.0789,-0.0653,-0.0515,-0.0351,-0.017,-0.002,0.0111,0.0175,0.0224,0.0224,0.0192,0.0157,0.0162,0.0151,0.0245,0.0245,0.0245,0.0245,0,-0.0672,-0.0712,-0.0772,-0.0836,-0.0899,-0.0925,-0.0929,-0.0889,-0.0857,-0.0737,-0.0691,-0.0503,-0.0389,-0.0185,-0.0048,0.0081,0.0104,0.0126,0.013,0.013,0.0061,-0.0002,0.0067,0,0,0,0,0,-0.0684,-0.0731,-0.0802,-0.0867,-0.0928,-0.0954,-0.0961,-0.0945,-0.0883,-0.0791,-0.0733,-0.0572,-0.0336,-0.0229,-0.0099,-0.0063,0.0104,0.0089,0.0125,0.0256,0.0254,0.019,0,0,0,0,0,0,-0.0694,-0.0764,-0.0801,-0.0875,-0.0919,-0.0969,-0.0971,-0.0931,-0.0863,-0.0784,-0.0652,-0.0564,-0.0334,-0.0408,-0.0102,-0.0062,-0.0028,0.0206,0.0208,0.0257,0.0255,0.0253,0.0187,0,0,0,0,0]}]]